Retour au catalogue

STARLINK-32723

ActifCommunicationsVLEO
NORAD 62449·PAYLOAD·🇺🇸 United States

Lancé Dec 29, 2024 depuis Vandenberg Space Force Base

Loading…

Prochains Passages (prochaines 24 heures)

TLE

FraisSource: CelesTrak SupGP

Époque: Sep 15, 2026, 02:37 UTC

1 62449C 24251T   26258.10951389 -.00059892  00000+0 -17696-2 0  2581
2 62449  53.1566 172.5571 0001379  82.3945 165.6540 15.34418433    16

Suivez STARLINK-32723 en temps réel avec AllMySat

Download on the App Store